Content
SEND FEEDBACK

Daily
Averages
Monthly
Summary
Greece

ATHENS, GREECE


Home > Europe > Greece
Elevation: 69 feet     Latitude: 37 54N     Longitude: 023 44E

WEATHER
 
SELECT A DAY
Number of Records: 77,120;   Date Range: 4/14/01 - 8/31/14
 
SHARE

PRINT THIS DATA

[ ← Previous Day ]
WEATHER ALMANAC - JANUARY 29, 2013
[ Next Day → ]
[ °C ]   °F
Weather ElementAverageHighLow
Temperature45 °F50 °F (11:20 am)39.2 °F (1:50 am)
Dewpoint38.6 °F42.8 °F (3:50 pm)33.8 °F (7:50 am)
Humidity78.3 %87 % (1:50 am)66 % (9:50 am)
Barometer30.07 in30.12 in (10:50 am)30.01 in (12:50 am)
Wind Speed5.5 mph13.8 mph (4:20 pm)
Weather ElementAverage
Visibility6.2 mi
Wind DirectionSSE (166 °)

Weather ElementTotal
Precipitation---
Heating Degree Days20.4 (Base 65)
Averaged from 47 records on January 29, 2013
WEATHER CONDITIONS BREAKOUT
WIND DIRECTION BREAKOUT
WEATHER BY HOUR - JANUARY 29, 2013
[ °C ]   °F
Local TimeTemperatureDewpointHumidityBarometerVisibilityWind DirectionWind SpeedGust SpeedPrecipitationEventsConditions
12:50 AM41.0 °F35.6 °F81 %30.01 in6.2 miWNW (290°)4.6 mphPartly Cloudy
1:20 AM41.0 °F35.6 °F81 %30.01 in6.2 miWest (260°)2.3 mphPartly Cloudy
1:50 AM39.2 °F35.6 °F87 %30.01 in6.2 miVariable3.5 mphScattered Clouds
2:20 AM42.8 °F37.4 °F81 %30.01 in6.2 miVariable2.3 mphMostly Cloudy
2:50 AM41.0 °F37.4 °F87 %30.01 in6.2 miVariable2.3 mphMostly Cloudy
3:20 AM42.8 °F37.4 °F81 %30.04 in6.2 miSW (230°)1.2 mphMostly Cloudy
3:50 AM41.0 °F37.4 °F87 %30.04 in6.2 miVariable2.3 mphMostly Cloudy
4:20 AM41.0 °F37.4 °F87 %30.01 in6.2 miVariable2.3 mphMostly Cloudy
4:50 AM42.8 °F37.4 °F81 %30.01 in6.2 miVariable1.2 mphMostly Cloudy
5:20 AM41.0 °F35.6 °F81 %30.04 in6.2 miWNW (290°)3.5 mphScattered Clouds
5:50 AM41.0 °F37.4 °F87 %30.04 in6.2 miVariable1.2 mphMostly Cloudy
6:20 AM41.0 °F37.4 °F87 %30.04 in6.2 miCalmMostly Cloudy
6:50 AM39.2 °F35.6 °F87 %30.04 in6.2 miVariable3.5 mphMostly Cloudy
7:20 AM41.0 °F35.6 °F81 %30.04 in6.2 miVariable3.5 mphMostly Cloudy
7:50 AM39.2 °F33.8 °F81 %30.06 in6.2 miVariable2.3 mphMostly Cloudy
8:20 AM41.0 °F35.6 °F81 %30.06 in6.2 miVariable1.2 mphMostly Cloudy
8:50 AM42.8 °F37.4 °F81 %30.06 in6.2 miCalmMostly Cloudy
9:20 AM46.4 °F39.2 °F76 %30.09 in6.2 miVariable1.2 mphMostly Cloudy
9:50 AM48.2 °F37.4 °F66 %30.09 in6.2 miNorth (350°)9.2 mphMostly Cloudy
10:20 AM48.2 °F39.2 °F71 %30.09 in6.2 miNorth (10°)8.1 mphDrizzle
10:50 AM48.2 °F39.2 °F71 %30.12 in6.2 miNorth (10°)10.4 mphMostly Cloudy
11:20 AM50.0 °F39.2 °F66 %30.09 in6.2 miNorth (360°)9.2 mphMostly Cloudy
11:50 AM50.0 °F39.2 °F66 %30.09 in6.2 miNorth (350°)9.2 mphMostly Cloudy
12:20 PM50.0 °F39.2 °F66 %30.09 in6.2 miNorth (350°)8.1 mphMostly Cloudy
12:50 PM50.0 °F39.2 °F66 %30.09 in6.2 miNorth (350°)11.5 mphMostly Cloudy
1:20 PM50.0 °F41.0 °F71 %30.09 in6.2 miNorth (350°)10.4 mphRainLight Rain
1:50 PM48.2 °F41.0 °F76 %30.09 in6.2 miNorth (350°)8.1 mphDrizzle
2:20 PM48.2 °F41.0 °F76 %30.09 in6.2 miNNW (340°)5.8 mphMostly Cloudy
2:50 PM48.2 °F41.0 °F76 %30.09 in6.2 miNorth (350°)6.9 mphMostly Cloudy
3:20 PM48.2 °F41.0 °F76 %30.06 in6.2 miNorth (360°)6.9 mphMostly Cloudy
3:50 PM50.0 °F42.8 °F76 %30.06 in6.2 miNorth (10°)11.5 mphMostly Cloudy
4:20 PM48.2 °F41.0 °F76 %30.06 in6.2 miNorth (360°)13.8 mphMostly Cloudy
4:50 PM48.2 °F41.0 °F76 %30.06 in6.2 miNNE (20°)12.7 mphMostly Cloudy
5:20 PM46.4 °F41.0 °F81 %30.06 in6.2 miNorth (10°)11.5 mphRainLight Rain
5:50 PM46.4 °F41.0 °F81 %30.09 in6.2 miNNE (20°)10.4 mphMostly Cloudy
6:20 PM46.4 °F39.2 °F76 %30.09 in6.2 miNorth (350°)6.9 mphDrizzle
6:50 PM46.4 °F39.2 °F76 %30.09 in6.2 miNorth (360°)5.8 mphDrizzle
7:20 PM46.4 °F39.2 °F76 %30.09 in6.2 miNorth (360°)8.1 mphDrizzle
7:50 PM46.4 °F39.2 °F76 %30.09 in6.2 miNNW (340°)6.9 mphMostly Cloudy
8:20 PM46.4 °F39.2 °F76 %30.09 in6.2 miNNW (330°)4.6 mphMostly Cloudy
8:50 PM46.4 °F39.2 °F76 %30.09 in6.2 miNW (320°)4.6 mphDrizzle
9:20 PM46.4 °F39.2 °F76 %30.12 in6.2 miNW (310°)5.8 mphRainLight Rain
9:50 PM46.4 °F41.0 °F81 %30.12 in6.2 miNorth (350°)4.6 mphRainLight Rain
10:20 PM44.6 °F39.2 °F81 %30.09 in6.2 miNE (40°)3.5 mphMostly Cloudy
10:50 PM42.8 °F39.2 °F87 %30.12 in6.2 miNNE (20°)2.3 mphScattered Clouds
11:20 PM42.8 °F39.2 °F87 %30.09 in6.2 miVariable1.2 mphScattered Clouds
11:50 PM42.8 °F37.4 °F81 %30.09 in6.2 miVariable1.2 mphScattered Clouds
Hourly data recorded from LGAV, located miles away from Athens, Greece







STORIES FROM OUR PARTNERS